Simultaneous Nadir Overpasses (SNOs) Predictions

Prediction of SNOs between LANDSAT-8 and NOAA-19 Satellite Orbit:

Table of predicted SNOs for the next 14.0 days since TLE Epoch: 3/30/2024
Index Date (LANDSAT-8) Time (LANDSAT-8) Lat,Lon (LANDSAT-8) SZA (LANDSAT-8 ) Date (NOAA-19) Time (NOAA-19) Lat,Lon (NOAA-19) SZA (NOAA-19 ) Distance(km) Time Diff (sec)
1 03/31/2024 05:09:06 80.78, 137.61 77.99 03/31/2024 05:09:10 80.79, 137.63 77.99 0.47 4
2 04/02/2024 11:32:17 80.77, 41.68 77.11 04/02/2024 11:32:13 80.78, 41.80 77.13 2.37 4
3 04/04/2024 17:55:27 80.77, -54.11 76.27 04/04/2024 17:55:16 80.77, -54.13 76.26 0.46 11
4 04/07/2024 00:18:36 80.78,-149.77 75.45 04/07/2024 00:18:18 80.78,-149.81 75.43 1.21 18
5 04/07/2024 01:08:03 -80.79, 17.88 104.57 04/07/2024 01:09:13 -80.79, 17.75 104.55 2.37 70
6 04/09/2024 06:41:45 80.78, 114.38 74.61 04/09/2024 06:41:20 80.77, 114.41 74.60 0.93 25
7 04/09/2024 07:31:12 -80.78, -77.96 105.40 04/09/2024 07:32:15 -80.79, -77.85 105.36 2.15 63
8 04/11/2024 13:04:54 80.76, 18.32 73.75 04/11/2024 13:04:23 80.75, 18.17 73.72 2.67 31



Historial Predications of SNOs between LANDSAT-8 and NOAA-19
